[[{"header":{"parameterUnit":"m.s-1","parameterCategory":1,"la1":30.2991,"la2":30.254,"lo1":-89.0895,"lo2":-89.0444,"dy":0.0017,"dx":0.0017,"nx":28,"ny":28,"refTime":"2024-07-17T03:00:00:Z","depth":0,"parameterNumber":2,"parameterNumberName":"U-component_of_WINDS"},"data":[0,0,0,0,0,0,0,0,0,0,0,0,0,0,0,0,0,0,0,0,0,0,0,0,0,0,0,0,0,0,0,0,0,0,0,0,0,0,0,0,0,0,0,0,0,0,0,0,0,0,0,0,0,0,0,0,0,0,2.8975,2.8975,0,2.8997,2.8997,2.8997,2.8948,2.8946,2.8945,2.8943,2.8966,2.8968,2.897,0,0,0,0,0,0,0,0,0,0,0,0,0,2.8887,2.8889,2.8975,2.8975,2.8975,2.8997,2.8997,2.8997,2.8948,2.8946,2.8944,2.8943,2.8965,2.8968,2.897,0,0,0,0,0,0,0,0,0,0,0,0,0,2.8919,2.889,2.8974,2.8953,2.8952,2.8997,2.8997,2.8997,2.8949,2.8946,2.8944,2.8942,2.8964,2.8968,2.8971,2.9037,0,0,2.898,2.8981,0,0,0,0,0,0,0,0,2.8917,2.8922,2.8956,2.8955,2.8953,2.8967,2.8975,2.9011,2.8949,2.895,2.8943,2.8941,2.8968,2.8971,2.898,2.9038,2.9039,2.898,2.8982,2.8984,2.8985,0,0,0,0,0,0,0,2.8915,2.8921,2.8983,2.8957,2.8955,2.8942,2.8944,2.8981,2.8972,2.895,2.8946,2.8949,2.8967,2.8977,2.8981,2.904,2.898,2.8983,2.8985,2.8986,2.9149,2.9152,0,0,0,0,0,0,2.8916,2.892,2.8983,2.8984,2.8929,2.8945,2.8947,2.8965,2.8972,2.897,2.8951,2.8947,2.8973,2.8977,2.8981,2.9056,2.8984,2.8987,2.8988,2.9147,2.915,2.9152,0,0,0,0,0,0,2.8914,2.8922,2.8982,2.8951,2.8957,2.8949,2.897,2.8967,2.8977,2.8973,2.8971,2.8964,2.8972,2.8977,2.9023,2.9056,2.8988,2.8991,2.9144,2.9148,2.9151,2.9209,0,0,0,0,0,0,2.8912,2.8922,2.8948,2.8952,2.8959,2.9024,2.8972,2.8969,2.8983,2.8977,2.8984,2.8983,2.897,2.9018,2.9026,2.9059,2.8993,2.9141,2.9146,2.915,2.9204,2.9214,2.9223,0,0,0,0,0,2.8909,2.8964,2.8949,2.8957,2.8992,2.9026,2.903,2.9014,2.8986,2.9011,2.9007,2.8983,2.9052,2.9023,2.9032,2.9067,2.9138,2.9144,2.915,2.92,2.9212,2.9223,0,0,0,0,0,0,2.8965,2.8964,2.8948,2.9006,2.9016,2.9018,2.9049,2.9029,2.9047,2.9041,2.9021,2.9023,2.9072,2.9074,2.9042,2.9129,2.909,2.9098,2.9126,2.9137,2.9147,2.9144,2.8996,0,0,0,0,0,2.8984,2.9012,2.901,2.9062,2.9068,2.9058,2.9072,2.9059,2.9068,2.9073,2.9073,2.9083,2.9106,2.9123,2.9145,2.9205,2.9204,2.9233,2.9242,2.925,2.9256,2.9284,2.9296,2.9171,2.9171,2.917,0,0,2.9024,2.9027,2.9046,2.9073,2.9079,2.9107,2.9062,2.9095,2.9114,2.9078,2.912,2.9121,2.913,2.9183,2.9206,2.9186,2.929,2.9257,2.9263,2.9265,2.9291,2.9303,2.9313,2.9174,2.9174,2.9173,0,0,2.911,2.9117,2.9158,2.9165,2.9174,2.9167,2.9177,2.9181,2.9179,2.9222,2.9193,2.9217,2.9259,2.9266,2.9275,2.9361,2.9337,2.9369,2.9417,2.9445,2.9455,2.9463,2.949,2.9501,2.9375,2.9376,2.9376,0,2.9158,2.92,2.9182,2.9215,2.9227,2.9194,2.9234,2.9242,2.9259,2.9266,2.9245,2.9294,2.9299,2.935,2.9371,2.9381,2.9389,2.9367,2.9455,2.9463,2.9471,2.9496,2.9507,2.9379,2.9379,2.9378,2.9378,0,2.9256,2.9285,2.9318,2.9332,2.9348,2.9385,2.9372,2.9389,2.9374,2.9369,2.941,2.9415,2.9435,2.9447,2.9434,2.9496,2.9483,2.9459,2.9418,2.9487,2.951,2.952,2.9384,2.9383,2.9382,2.9381,0,0,2.9378,2.9381,2.9393,2.9397,2.9404,2.9426,2.9461,2.948,2.9494,2.9506,2.9533,2.9568,2.9545,2.9555,2.9542,2.9567,2.963,2.9539,2.9539,2.9553,2.9694,2.971,2.9722,2.9615,2.9617,2.9619,2.9692,0,2.946,2.9518,2.9502,2.956,2.9585,2.9553,2.9583,2.959,2.9585,2.9605,2.96,2.9624,2.9593,2.9599,2.9622,2.9617,2.9657,2.9612,2.9638,2.9639,2.9633,2.9735,2.9752,2.9821,2.9702,2.9703,2.9704,0,2.9563,2.9577,2.9637,2.9637,2.9646,2.9673,2.9687,2.9708,2.9714,2.9709,2.9719,2.9701,2.9733,2.9694,2.9737,2.9707,2.9716,2.9715,2.9718,2.9717,2.9673,2.9733,2.9843,2.9852,2.9719,2.9718,2.9717,0,2.9641,2.9676,2.9714,2.972,2.9722,2.9741,2.9742,2.9746,2.9758,2.9771,2.9777,2.9794,2.9803,2.9816,2.9802,2.9776,2.9845,2.9807,2.984,2.984,2.9853,2.9852,2.9963,2.9866,2.9866,2.9865,2.9865,0,2.9732,2.9769,2.9749,2.9773,2.9812,2.9793,2.9833,2.9831,2.9834,2.9856,2.9831,2.9852,2.9833,2.9852,2.9842,2.9876,2.9882,2.9877,2.9873,2.9877,2.9877,2.9881,2.9874,2.9868,2.9868,2.9867,2.9867,0,2.9825,2.9813,2.9853,2.985,2.985,2.9879,2.9877,2.9898,2.9891,2.9919,2.9924,2.9914,2.9934,2.9922,2.9944,2.9936,2.998,2.9972,2.9978,2.9974,3.0006,3.0002,3.0121,3.0134,3.0031,3.0033,3.0033,0,2.9882,2.9909,2.9909,2.9921,2.9923,2.9944,2.9955,2.9937,2.9949,2.9957,2.9976,2.9995,3.0008,3.0043,3.0036,3.0052,3.0041,3.0082,3.0044,3.0046,3.0038,3.0035,3.0036,3.0089,3.009,3.0091,3.0092,0,2.9984,2.9976,2.9992,3.0005,3.0018,3.0028,3.0036,3.0048,3.003,3.0044,3.0064,3.0075,3.0095,3.0113,3.0126,3.0127,3.0105,3.0104,3.0112,3.0115,3.0115,3.0112,2.9995,3.0101,3.01,3.0099,3.0099,3.0098,3.0058,3.0079,3.0081,3.0098,3.0102,3.0109,3.0128,3.0122,3.0139,3.0153,3.0142,3.0165,3.0168,3.0183,3.0186,3.0203,3.0187,3.0199,3.0202,3.0204,3.0207,3.0116,3.0206,3.0206,3.0206,3.0206,3.0205,0,3.0155,3.0154,3.017,3.0181,3.0194,3.0173,3.018,3.0192,3.0213,3.0217,3.023,3.0252,3.0268,3.0263,3.0277,3.0291,3.0282,3.0295,3.0292,3.0292,3.0223,3.0213,3.0303,3.0303,3.0303,3.0303,3.0303,3.0303,3.0207,3.0239,3.0231,3.0265,3.0264,3.0285,3.029,3.0296,3.0299,3.0324,3.0337,3.0333,3.0333,3.0346,3.036,3.0358,3.0363,3.0379,3.0373,3.0307,3.0298,3.0288,3.0279,3.0381,3.0381,3.0441,3.0441,3.0442]},{"header":{"parameterUnit":"m.s-1","parameterCategory":1,"la1":30.2991,"la2":30.254,"lo1":-89.0895,"lo2":-89.0444,"dy":0.0017,"dx":0.0017,"nx":28,"ny":28,"refTime":"2024-07-17T03:00:00:Z","depth":0,"parameterNumber":3,"parameterNumberName":"V-component_of_WINDS"},"data":[0,0,0,0,0,0,0,0,0,0,0,0,0,0,0,0,0,0,0,0,0,0,0,0,0,0,0,0,0,0,0,0,0,0,0,0,0,0,0,0,0,0,0,0,0,0,0,0,0,0,0,0,0,0,0,0,0,0,1.1972,1.1973,0,1.209,1.2092,1.2093,1.2115,1.2114,1.2113,1.2112,1.2237,1.2241,1.2246,0,0,0,0,0,0,0,0,0,0,0,0,0,1.1766,1.1769,1.1972,1.1973,1.1975,1.209,1.2092,1.2093,1.2115,1.2114,1.2113,1.2112,1.2236,1.2241,1.2246,0,0,0,0,0,0,0,0,0,0,0,0,0,1.1867,1.1771,1.1971,1.1999,1.2003,1.209,1.2092,1.2094,1.2116,1.2114,1.2113,1.2111,1.2234,1.224,1.2247,1.2315,0,0,1.2266,1.2269,0,0,0,0,0,0,0,0,1.1861,1.1875,1.1994,1.1998,1.2002,1.2086,1.2065,1.2168,1.2116,1.2073,1.2112,1.2111,1.2188,1.2198,1.2224,1.232,1.2326,1.2267,1.227,1.2273,1.2275,0,0,0,0,0,0,0,1.1854,1.187,1.2019,1.1996,1.2001,1.2007,1.2019,1.2085,1.2138,1.2077,1.2079,1.2092,1.219,1.2218,1.2227,1.2328,1.2266,1.2272,1.2276,1.2278,1.2484,1.2485,0,0,0,0,0,0,1.1842,1.1864,1.2015,1.2022,1.1926,1.2011,1.2026,1.2061,1.2137,1.2147,1.2093,1.2093,1.2208,1.222,1.2232,1.2315,1.2273,1.2279,1.2283,1.2482,1.2484,1.2486,0,0,0,0,0,0,1.1837,1.1855,1.201,1.1943,1.1964,1.2017,1.2056,1.2064,1.2091,1.2149,1.2159,1.2111,1.2207,1.2223,1.2293,1.232,1.2282,1.2288,1.248,1.2483,1.2485,1.2483,0,0,0,0,0,0,1.1831,1.1853,1.188,1.1944,1.1967,1.2069,1.2057,1.2067,1.2102,1.2102,1.2169,1.2179,1.2207,1.2283,1.2299,1.2328,1.2293,1.2478,1.2481,1.2484,1.2481,1.2485,1.2488,0,0,0,0,0,1.1824,1.1875,1.1881,1.1899,1.2001,1.2071,1.2084,1.2115,1.2104,1.2131,1.2167,1.2177,1.2314,1.2291,1.2309,1.2339,1.2476,1.248,1.2484,1.2479,1.2484,1.2488,0,0,0,0,0,0,1.1815,1.1885,1.1891,1.1965,1.2011,1.2074,1.2109,1.212,1.2171,1.217,1.2207,1.2221,1.2289,1.2322,1.2294,1.2408,1.2394,1.2402,1.2384,1.239,1.2393,1.2384,1.2298,0,0,0,0,0,1.1821,1.1871,1.193,1.1989,1.2012,1.2056,1.2088,1.2107,1.2158,1.2178,1.222,1.2269,1.2323,1.2358,1.2411,1.2485,1.2499,1.2515,1.2518,1.2521,1.2527,1.2567,1.2574,1.2498,1.2498,1.2498,0,0,1.1835,1.1879,1.1909,1.1988,1.2027,1.2078,1.2073,1.2128,1.2167,1.2187,1.2255,1.2287,1.2345,1.2416,1.245,1.2445,1.2551,1.2526,1.2528,1.2533,1.2572,1.2579,1.2585,1.2501,1.25,1.25,0,0,1.1887,1.1926,1.1979,1.2016,1.2074,1.2102,1.2115,1.2176,1.2198,1.2266,1.2282,1.2328,1.2421,1.2461,1.2493,1.2556,1.2566,1.2573,1.2593,1.2631,1.2637,1.2642,1.2664,1.2672,1.2579,1.2579,1.2579,0,1.1898,1.1975,1.2005,1.2058,1.2092,1.2111,1.2164,1.22,1.2272,1.2295,1.2288,1.2403,1.2443,1.2523,1.2538,1.2564,1.258,1.2566,1.2633,1.2639,1.2645,1.2666,1.2674,1.2579,1.2579,1.2579,1.2579,0,1.1985,1.2038,1.2074,1.2141,1.2179,1.2232,1.227,1.2305,1.232,1.2349,1.2418,1.2467,1.2529,1.2549,1.2566,1.2631,1.2626,1.2626,1.2613,1.2652,1.2672,1.2681,1.2579,1.2579,1.2579,1.2579,0,0,1.2036,1.2116,1.2129,1.2159,1.2222,1.2264,1.2318,1.2377,1.2406,1.2454,1.25,1.2577,1.2576,1.2612,1.2633,1.2667,1.2712,1.2662,1.2664,1.2669,1.2786,1.2785,1.2794,1.2719,1.272,1.2722,1.2781,0,1.2095,1.219,1.2217,1.2297,1.2346,1.2363,1.241,1.2453,1.2482,1.2528,1.256,1.2613,1.2608,1.263,1.2664,1.2699,1.2736,1.2696,1.2762,1.2764,1.2746,1.2805,1.2806,1.2859,1.2789,1.2791,1.2792,0,1.2176,1.2224,1.2309,1.2363,1.2385,1.2426,1.2481,1.2525,1.2575,1.2593,1.2632,1.2649,1.2706,1.2689,1.2767,1.2739,1.2768,1.2789,1.2792,1.2799,1.278,1.2814,1.2877,1.2885,1.2805,1.2804,1.2803,0,1.2204,1.2289,1.2351,1.2376,1.2442,1.247,1.2499,1.2547,1.258,1.2628,1.265,1.2705,1.2735,1.2777,1.2809,1.2794,1.2884,1.287,1.29,1.2899,1.2919,1.2917,1.2987,1.2937,1.2937,1.2937,1.2937,0,1.2266,1.2317,1.2363,1.2401,1.2458,1.2489,1.2544,1.2574,1.2616,1.266,1.2679,1.272,1.2759,1.2805,1.283,1.289,1.2904,1.292,1.2926,1.2918,1.2916,1.2937,1.2934,1.2939,1.2939,1.2938,1.2938,0,1.2307,1.234,1.2407,1.2463,1.2478,1.2518,1.2566,1.2603,1.2631,1.2686,1.2701,1.2745,1.28,1.2835,1.2906,1.2922,1.2987,1.2993,1.297,1.2973,1.3,1.2997,1.3087,1.3099,1.3042,1.3042,1.3042,0,1.2345,1.2384,1.2443,1.2472,1.2501,1.2549,1.2582,1.2613,1.2647,1.2705,1.2735,1.279,1.2837,1.2923,1.2962,1.3016,1.3022,1.305,1.3031,1.3021,1.3022,1.3019,1.3022,1.3053,1.3053,1.3054,1.3054,0,1.2407,1.2421,1.2467,1.2519,1.2557,1.26,1.2642,1.2666,1.2704,1.2741,1.2796,1.2832,1.2902,1.2957,1.3013,1.3044,1.3055,1.3059,1.3069,1.3062,1.3046,1.3054,1.2978,1.3058,1.3057,1.3057,1.3057,1.3057,1.2447,1.2482,1.2528,1.2579,1.2613,1.2652,1.2689,1.272,1.2766,1.2825,1.2841,1.2898,1.2945,1.3022,1.3053,1.3099,1.3095,1.311,1.3113,1.3116,1.3116,1.3039,1.3109,1.3109,1.3109,1.3109,1.3109,0,1.251,1.254,1.2586,1.2644,1.2683,1.2688,1.2735,1.2768,1.2818,1.286,1.2904,1.2967,1.3019,1.3061,1.3115,1.3144,1.315,1.3157,1.3155,1.3161,1.3116,1.3102,1.315,1.315,1.315,1.315,1.315,1.315,1.2548,1.2606,1.2625,1.27,1.273,1.2785,1.2811,1.2847,1.288,1.2949,1.2992,1.3018,1.306,1.3117,1.3165,1.3176,1.3195,1.32,1.3212,1.3169,1.3165,1.316,1.3147,1.3204,1.3204,1.3254,1.3254,1.3255]}]]